This demonstration page uses our WeatherBlox Daily Observations layout. Learn more.

38.89511, -77.03637

Hourly Observations for February 9, 2020

Temp ( °F °C ) Dew Point ( °F °C ) Humidity (%) Winds ( mph kmh ) Pressure ( in mb ) Visibility ( mi km ) Precip ( " mm )
12:52 am 00:52 Partly Cloudy 36 2.2 27 -2.8 70 70 Calm 30.35 1028 10 16.0934 0 0
1:52 am 01:52 Mostly Clear 35 1.7 27 -2.8 72 72 WSW 3 6 30.36 1028 10 16.0934 0 0
2:52 am 02:52 Partly Cloudy 34 1.1 28 -2.2 79 79 S 6 9 30.37 1028 10 16.0934 0 0
3:52 am 03:52 Mostly Clear 34 1.1 27 -2.8 76 76 Calm 30.4 1029 10 16.0934 0 0
4:52 am 04:52 Mostly Clear 32 0 27 -2.8 82 82 Calm 30.42 1030 10 16.0934 0 0
5:52 am 05:52 Partly Cloudy 32 0 27 -2.8 82 82 SW 3 6 30.45 1031 10 16.0934 0 0
6:52 am 06:52 Mostly Cloudy 33 0.6 27 -2.8 78 78 Calm 30.46 1032 10 16.0934 0 0
7:52 am 07:52 Partly Cloudy 33 0.6 28 -2.2 82 82 Calm 30.5 1033 10 16.0934 0 0
8:52 am 08:52 Mostly Sunny 38 3.3 32 0 79 79 Calm 30.52 1034 10 16.0934 0 0
9:52 am 09:52 Sunny 44 6.7 24 -4.4 45 45 NNW 9 15 30.54 1034 10 16.0934 0 0
10:52 am 10:52 Sunny 46 7.8 25 -3.9 44 44 N 10 17 30.54 1034 10 16.0934 0 0
11:52 am 11:52 Mostly Sunny 49 9.4 23 -5 36 36 NNE 7 11 30.54 1034 10 16.0934 0 0
12:52 pm 12:52 Mostly Sunny 50 10 23 -5 35 35 NNW 5 7 30.5 1033 10 16.0934 0 0
1:52 pm 13:52 Sunny 49 9.4 23 -5 36 36 SE 7 11 30.46 1031 10 16.0934 0 0
2:52 pm 14:52 Mostly Sunny 49 9.4 26 -3.3 41 41 SSE 8 13 30.44 1031 10 16.0934 0 0
3:52 pm 15:52 Mostly Sunny 50 10 24 -4.4 36 36 SSW 12 19 30.44 1031 10 16.0934 0 0
4:52 pm 16:52 Partly Cloudy 48 8.9 24 -4.4 39 39 S 9 15 30.44 1031 10 16.0934 0 0
5:52 pm 17:52 Mostly Cloudy 46 7.8 31 -0.6 56 56 S 8 13 30.45 1031 10 16.0934 0 0
6:52 pm 18:52 Mostly Cloudy 45 7.2 27 -2.8 49 49 SSE 7 11 30.44 1031 10 16.0934 0 0
7:52 pm 19:52 Mostly Cloudy 45 7.2 28 -2.2 52 52 SSE 10 17 30.44 1031 10 16.0934 0 0
8:52 pm 20:52 Mostly Cloudy 44 6.7 30 -1.1 58 58 S 13 20 30.42 1030 10 16.0934 0 0
9:52 pm 21:52 Mostly Cloudy 43 6.1 32 0 65 65 S 10 17 30.4 1029 10 16.0934 0 0
10:52 pm 22:52 Mostly Cloudy 43 6.1 32 0 65 65 S 15 24 30.37 1028 10 16.0934 0 0
11:52 pm 23:52 Cloudy 42 5.6 33 0.6 71 71 S 13 20 30.34 1027 10 16.0934 0 0

Powered by AerisWeather